Wind_Speed
23 27 27 17 19 23 27 34 36 34 30 25 24 24 23 23 22 21 18 15 14 15 15 17 20 23 27 26 25 26 28 28 32 35 31 28 25 24 22 24 27 28 30 31 35 36 37 39 40
26 22 22 26 25 28 31 36 34 34 29 25 23 22 22 20 21 19 16 13 13 12 12 13 14 16 19 23 22 24 24 27 29 31 30 28 26 24 24 25 29 32 37 38 40 41 42 45 43
30 31 31 25 26 28 30 31 26 33 32 26 24 22 21 20 18 17 14 13 12 12 10 12 13 13 15 22 23 24 23 24 27 30 29 29 28 28 29 29 30 32 34 36 39 41 42 42 45
32 36 35 30 24 20 26 31 29 30 34 28 24 21 19 18 16 14 13 12 11 11 10 9 12 14 16 21 23 24 26 27 27 28 31 29 31 31 34 34 38 37 36 39 39 41 44 46 47
32 34 29 27 26 30 29 30 30 31 34 29 23 20 17 13 13 11 11 10 10 10 9 11 13 16 18 21 24 24 25 27 28 28 31 34 34 34 35 37 39 39 39 41 44 45 46 45 48
24 25 22 22 25 24 27 27 28 39 30 31 24 18 16 12 10 10 10 8 9 9 10 12 14 14 16 19 23 26 28 27 26 25 27 28 30 30 32 36 39 42 43 45 45 46 45 45 47
31 29 28 28 26 27 25 26 32 34 31 31 26 18 15 10 8 8 8 9 8 8 9 10 11 13 15 17 20 24 27 28 29 30 31 32 36 37 38 40 43 45 44 44 42 41 41 42 45
34 33 36 34 26 30 30 30 29 32 32 26 28 20 16 13 6 6 6 8 8 7 7 9 10 13 16 16 18 20 24 27 27 32 34 37 38 40 43 44 46 44 43 42 42 42 41 41 42
36 39 30 28 33 30 26 24 24 27 28 29 25 22 16 15 12 7 6 7 8 8 8 9 11 13 13 15 18 20 23 25 28 30 34 36 42 42 43 43 43 40 41 39 37 38 38 38 40
34 26 26 32 25 24 28 23 28 26 28 30 25 22 18 17 15 13 11 10 8 9 9 10 12 12 13 15 17 19 20 22 24 28 30 33 35 37 36 37 36 35 34 35 37 39 39 41 42
36 33 33 33 26 25 20 23 25 22 29 29 28 22 16 18 19 16 14 13 12 11 11 11 12 13 14 15 17 20 22 23 24 26 28 29 30 31 32 33 34 34 35 37 38 39 41 41 41
42 42 39 37 33 25 28 26 21 23 29 28 32 23 23 16 19 22 21 17 14 13 14 14 14 15 16 17 18 21 22 23 24 25 27 28 29 31 31 33 34 36 37 37 38 40 40 41 42
46 39 42 34 31 28 31 25 26 26 31 31 28 34 26 27 20 23 20 21 19 17 16 16 15 16 18 20 21 23 25 26 27 28 30 31 32 33 34 35 36 36 38 39 41 41 43 43 42
49 44 42 36 34 33 27 26 29 30 35 31 28 30 34 30 26 25 24 21 21 20 17 16 17 17 17 18 20 22 24 27 29 30 31 33 34 36 37 38 38 39 39 41 43 45 45 44 43
46 50 42 39 40 26 26 30 34 33 34 24 27 26 33 31 31 31 30 26 26 22 21 20 19 18 18 19 21 22 24 27 30 32 31 33 34 36 38 41 42 42 42 43 44 46 46 46 45
54 53 51 44 43 38 44 42 37 30 31 31 33 29 30 33 31 33 37 37 32 25 22 24 23 23 23 23 23 24 24 26 29 32 35 35 36 37 38 40 41 41 41 42 43 44 45 44 42
50 52 55 52 47 46 44 42 36 36 35 34 36 37 36 31 34 39 36 40 38 32 28 27 26 30 26 26 27 28 28 29 30 32 34 37 38 38 40 39 38 39 41 41 41 41 44 44 44
60 55 53 51 50 48 47 42 39 34 39 38 37 39 38 34 35 40 39 36 37 37 37 34 32 32 30 29 29 31 33 35 35 37 39 41 43 43 42 41 39 38 42 43 42 42 42 45 45
62 64 57 53 53 51 44 43 46 43 41 38 41 41 41 38 38 43 44 41 40 39 38 38 37 37 39 34 32 32 32 35 38 39 40 42 43 44 45 45 45 44 43 44 46 46 46 48 49
62 60 61 57 56 54 54 52 48 41 45 45 47 39 44 45 42 45 49 46 47 45 44 41 38 38 41 40 40 38 33 33 38 41 42 42 42 44 45 46 46 44 45 46 47 49 49 48 48
70 68 64 61 58 57 53 49 48 50 50 55 51 49 49 53 53 58 57 52 51 50 47 45 45 43 43 43 44 43 42 44 44 43 44 45 46 47 48 48 51 48 48 49 48 48 51 51 53
75 77 75 72 62 58 57 55 59 59 63 56 61 59 59 55 59 62 54 54 55 53 51 53 52 50 49 49 50 50 47 49 49 49 47 48 49 52 53 53 54 54 54 55 55 54 53 53 55
75 69 69 65 62 64 62 61 65 66 62 65 62 67 67 62 58 61 57 57 56 55 54 54 54 56 54 54 54 54 54 55 54 55 53 52 53 53 54 54 55 59 59 59 59 59 58 61 62
80 79 77 71 67 66 67 63 61 65 71 72 73 72 67 63 62 61 60 62 60 62 60 58 57 57 58 58 59 60 59 59 59 60 62 61 61 61 60 59 57 58 60 61 63 65 67 67 68
84 86 82 81 77 70 73 70 62 72 80 81 76 70 68 66 68 66 66 64 67 67 65 62 61 61 60 61 62 63 64 64 64 65 66 67 67 66 67 67 67 68 68 68 67 70 73 76 76
90 91 89 84 83 83 82 78 79 79 79 80 78 72 70 72 71 71 72 71 71 72 69 67 65 65 66 67 68 68 69 70 70 71 71 74 75 74 74 74 75 76 75 75 76 77 78 80 83
97 97 97 95 94 91 86 84 81 80 76 80 79 79 79 74 75 77 77 75 76 75 73 72 71 70 71 73 73 74 74 74 76 77 78 80 81 81 80 81 82 82 82 83 83 82 84 85 86
99 96 97 96 92 89 88 83 81 83 81 77 77 81 82 81 83 81 80 81 81 79 77 76 75 75 76 77 77 79 79 80 81 83 84 85 85 87 87 89 89 88 87 87 86 87 85 85 92
99 98 98 96 94 93 88 86 84 85 84 81 81 80 83 86 86 85 85 87 87 86 83 81 81 81 83 81 82 82 84 85 85 86 88 89 91 92 93 94 92 91 91 93 93 93 95 96 98
102 102 100 99 94 92 87 82 81 83 84 85 83 80 81 84 87 88 88 90 91 91 90 88 86 88 87 87 85 85 86 86 88 90 91 93 96 95 93 93 94 95 96 100 100 102 103 104 102
Wind_Direction
241 247 243 270 303 309 309 307 317 316 306 307 302 298 294 283 275 267 264 262 258 253 252 248 241 246 243 248 248 243 243 237 240 247 251 255 260 266 274 277 278 281 274 275 271 272 271 273 275
244 242 264 271 293 300 305 301 314 335 322 319 314 302 292 278 268 265 259 255 255 249 243 242 241 242 240 239 243 238 243 239 243 243 249 252 257 262 268 279 281 281 271 274 272 271 272 276 273
244 248 268 271 291 287 296 306 323 340 332 329 318 303 295 281 266 261 260 253 248 245 238 243 250 241 236 232 244 246 245 242 244 244 249 253 256 261 262 268 274 270 270 269 270 271 273 270 271
255 253 266 266 280 293 302 307 308 338 334 332 322 307 297 284 267 259 253 252 243 242 239 250 248 254 240 233 238 235 242 247 246 247 249 252 255 261 261 266 269 266 267 271 271 271 269 269 271
246 249 264 268 280 286 301 304 306 331 334 336 327 315 302 290 282 269 258 253 240 229 225 238 247 248 235 234 232 236 240 244 249 250 250 250 255 257 259 264 263 259 262 269 269 269 271 274 274
255 245 259 277 280 295 295 298 310 321 336 339 333 322 311 304 292 281 269 253 248 235 232 230 232 243 231 238 236 236 242 246 247 251 248 252 259 259 257 258 263 263 270 274 276 277 280 281 282
248 241 253 279 284 288 288 303 309 320 327 343 336 332 322 308 311 288 275 263 253 248 243 245 246 245 245 243 243 247 249 250 251 254 256 254 259 267 264 264 267 274 280 284 286 286 287 288 289
241 255 258 271 279 278 293 299 306 316 329 331 342 336 337 320 315 328 294 279 270 265 266 267 265 260 254 256 258 258 254 256 261 264 263 263 262 269 273 271 275 282 285 288 290 290 291 290 289
258 252 265 270 269 278 294 300 307 313 325 336 352 341 349 346 335 339 349 319 299 288 286 285 282 278 276 274 269 268 268 271 270 271 269 271 269 272 276 277 282 284 285 286 290 292 292 293 294
254 261 256 262 263 274 291 291 311 314 319 331 340 350 350 359 352 356 358 350 326 308 291 286 286 284 281 279 280 281 279 279 279 279 280 281 279 282 279 280 282 283 287 292 295 297 298 299 298
246 252 264 259 264 275 289 295 298 321 318 325 330 358 352 6 8 359 358 358 345 329 311 296 290 289 288 286 285 284 283 283 283 282 282 282 281 281 282 282 284 289 293 295 295 296 297 296 296
246 248 258 254 261 264 277 290 284 304 319 319 318 337 355 356 18 19 5 349 347 340 332 322 312 305 299 294 290 286 285 283 284 282 283 284 285 285 286 289 291 291 291 291 292 293 293 294 295
246 248 257 254 261 272 279 280 279 297 312 313 311 315 328 341 1 359 1 4 347 336 335 328 321 315 309 306 302 300 298 297 294 292 292 293 292 291 291 289 288 287 290 291 291 291 293 294 296
240 246 251 265 260 263 268 274 275 289 302 302 303 310 314 332 339 351 357 352 348 341 322 318 318 315 311 309 307 302 299 297 294 293 292 292 293 293 293 292 292 292 292 293 294 295 296 297 299
242 238 251 258 261 259 279 284 282 290 298 299 300 302 313 321 329 334 340 344 343 337 333 316 303 302 304 307 307 305 303 301 298 297 296 295 293 292 293 294 295 296 297 298 298 298 298 299 300
246 248 244 248 256 257 276 283 275 287 285 301 298 300 306 312 318 328 332 337 339 330 330 330 321 310 304 301 299 299 300 301 302 301 300 297 295 293 293 294 296 297 296 296 297 297 297 300 300
247 248 244 246 255 265 270 269 266 278 282 293 304 294 300 297 305 318 322 328 334 330 318 317 325 330 318 309 306 303 302 302 301 300 300 300 300 301 300 299 299 299 298 298 299 299 300 301 301
243 247 252 247 257 261 267 259 267 275 284 287 300 287 294 294 301 307 311 316 322 327 326 317 309 320 325 321 315 310 309 307 307 308 308 308 306 306 306 307 306 306 306 305 303 302 300 300 300
246 250 250 251 254 258 254 260 269 273 273 282 294 294 286 288 292 300 306 305 310 313 313 313 311 306 311 323 320 319 312 309 308 308 307 307 307 307 309 308 308 308 307 304 304 302 301 300 299
243 244 247 250 257 257 261 262 260 267 269 278 284 288 288 290 285 293 298 299 305 304 308 306 305 302 300 305 317 316 313 315 314 308 304 302 300 301 302 302 303 303 303 303 299 300 301 300 298
248 248 248 254 256 256 256 255 261 264 270 274 282 285 285 286 283 288 290 293 297 300 304 302 304 300 297 297 302 311 311 312 314 310 306 304 304 302 301 300 300 302 300 301 297 294 296 294 294
250 251 253 255 256 254 250 259 266 269 273 271 280 284 286 281 288 286 284 287 291 296 294 295 297 295 297 297 298 298 303 304 308 307 305 305 306 305 303 301 302 301 302 300 299 297 296 294 295
250 249 253 251 249 249 249 257 264 267 265 273 279 284 289 285 284 281 279 284 285 289 287 288 291 292 293 294 292 293 295 297 298 302 301 301 303 301 300 301 302 301 301 301 302 301 301 299 300
249 250 252 248 247 248 253 256 260 263 268 273 277 282 283 281 282 278 278 281 281 284 282 282 285 286 287 288 290 290 289 290 291 296 301 298 298 302 302 303 300 300 300 300 301 302 301 300 301
248 249 246 246 246 246 255 258 256 264 271 274 275 279 282 279 281 276 276 279 278 282 280 282 283 284 284 282 281 281 282 284 286 289 291 292 294 297 300 299 299 300 299 300 300 300 300 301 301
245 247 250 248 251 255 256 258 260 259 265 269 276 277 276 277 275 273 271 275 277 280 278 278 280 279 279 279 279 280 281 282 282 284 286 287 289 291 295 296 296 297 298 298 300 300 299 301 300
248 248 250 254 257 259 260 260 259 260 261 266 272 277 276 271 271 273 271 273 275 278 276 276 277 278 278 279 280 279 279 280 280 281 282 284 287 289 289 289 291 293 295 295 296 297 297 297 297
249 250 253 256 255 254 259 256 256 259 261 264 266 270 270 271 272 270 269 272 272 274 274 276 276 276 276 277 278 278 279 279 279 278 279 282 284 286 288 289 290 291 292 293 294 294 294 293 295
245 247 250 250 252 257 255 257 257 259 262 263 262 262 265 268 269 269 272 275 276 276 274 274 274 275 274 275 276 277 277 278 280 281 282 283 285 286 288 289 292 292 292 292 293 295 295 296 298
247 250 250 253 257 256 256 257 260 261 261 262 261 261 260 262 265 268 270 270 271 273 275 276 276 277 276 277 278 279 280 280 281 281 282 283 285 288 289 289 290 291 292 294 295 297 298 299 297
Height
10862 10864 10864 10863 10863 10861 10859 10858 10854 10846 10843 10839 10835 10832 10829 10827 10827 10827 10826 10826 10827 10829 10829 10829 10831 10831 10833 10835 10836 10838 10840 10842 10843 10844 10847 10849 10851 10853 10854 10855 10855 10855 10854 10855 10854 10854 10853 10852 10851
10860 10860 10861 10861 10862 10860 10858 10855 10852 10844 10839 10835 10831 10829 10827 10825 10824 10823 10823 10823 10824 10826 10827 10827 10828 10829 10831 10833 10834 10836 10837 10839 10841 10842 10844 10846 10847 10849 10850 10851 10851 10850 10850 10849 10848 10848 10847 10846 10845
10857 10858 10858 10860 10860 10859 10857 10854 10852 10844 10837 10833 10830 10827 10824 10822 10821 10821 10821 10821 10821 10822 10824 10825 10826 10828 10829 10832 10832 10834 10835 10838 10838 10840 10841 10842 10844 10846 10846 10846 10845 10844 10842 10842 10842 10841 10840 10839 10838
10852 10855 10855 10858 10858 10857 10855 10853 10849 10844 10838 10833 10829 10825 10823 10820 10819 10819 10819 10818 10819 10820 10822 10823 10825 10826 10828 10830 10831 10832 10833 10834 10836 10838 10838 10839 10840 10841 10842 10842 10840 10839 10838 10836 10835 10834 10833 10832 10830
10849 10852 10853 10854 10856 10855 10854 10851 10848 10844 10839 10832 10828 10825 10821 10820 10817 10817 10817 10817 10818 10818 10820 10822 10823 10825 10826 10828 10828 10829 10831 10832 10832 10834 10834 10836 10836 10837 10837 10837 10835 10834 10833 10831 10828 10828 10828 10827 10825
10845 10848 10850 10852 10853 10852 10852 10849 10847 10844 10839 10833 10829 10825 10821 10818 10817 10816 10816 10816 10817 10817 10817 10820 10822 10823 10824 10825 10826 10826 10827 10828 10828 10829 10830 10831 10831 10831 10832 10831 10830 10829 10827 10826 10824 10823 10823 10822 10819
10841 10844 10846 10848 10850 10850 10849 10848 10845 10842 10839 10834 10828 10825 10822 10818 10816 10817 10815 10815 10815 10816 10817 10818 10820 10820 10820 10822 10823 10823 10824 10824 10825 10825 10825 10826 10827 10827 10827 10826 10825 10823 10822 10821 10819 10817 10816 10815 10812
10837 10840 10844 10845 10846 10847 10846 10844 10843 10840 10838 10835 10829 10825 10822 10819 10817 10815 10815 10814 10814 10814 10814 10815 10817 10819 10818 10818 10819 10820 10822 10822 10822 10822 10822 10822 10822 10822 10822 10821 10820 10819 10817 10815 10813 10811 10809 10808 10806
10833 10836 10839 10841 10842 10844 10844 10842 10841 10839 10837 10834 10831 10825 10822 10818 10816 10815 10813 10813 10812 10812 10812 10813 10814 10815 10815 10815 10816 10817 10817 10817 10818 10818 10818 10818 10817 10817 10817 10816 10815 10813 10812 10810 10807 10805 10803 10801 10799
10828 10832 10834 10837 10838 10840 10840 10840 10839 10838 10835 10833 10831 10827 10823 10820 10816 10815 10813 10812 10812 10812 10812 10812 10812 10813 10813 10814 10813 10813 10813 10814 10815 10815 10814 10814 10812 10812 10812 10811 10810 10809 10806 10804 10800 10798 10795 10793 10791
10823 10829 10830 10833 10834 10835 10836 10837 10837 10836 10834 10831 10831 10828 10824 10821 10818 10817 10814 10813 10812 10812 10811 10810 10810 10811 10810 10810 10810 10809 10809 10810 10810 10810 10809 10810 10808 10807 10806 10806 10804 10802 10799 10797 10795 10792 10789 10787 10784
10817 10823 10826 10830 10831 10831 10832 10833 10833 10833 10832 10830 10826 10827 10826 10822 10820 10817 10815 10814 10812 10810 10810 10808 10808 10807 10807 10807 10807 10807 10807 10807 10808 10807 10805 10805 10803 10801 10800 10799 10797 10795 10793 10791 10788 10786 10783 10780 10777
10810 10818 10820 10824 10825 10826 10828 10829 10828 10829 10829 10827 10825 10822 10823 10823 10821 10818 10816 10814 10814 10811 10809 10807 10806 10805 10804 10804 10804 10804 10803 10802 10802 10802 10800 10798 10797 10795 10794 10792 10791 10789 10786 10783 10780 10779 10776 10773 10771
10805 10813 10815 10816 10819 10821 10822 10824 10822 10827 10825 10824 10822 10821 10819 10819 10818 10818 10816 10815 10812 10811 10810 10809 10806 10805 10804 10803 10801 10801 10800 10798 10796 10797 10797 10794 10792 10790 10788 10786 10784 10782 10780 10777 10772 10771 10770 10767 10765
10799 10804 10808 10810 10815 10815 10814 10821 10817 10822 10820 10820 10820 10818 10818 10818 10815 10814 10814 10813 10813 10811 10809 10808 10807 10805 10803 10801 10799 10797 10796 10794 10792 10791 10791 10790 10788 10785 10782 10778 10776 10774 10773 10771 10769 10764 10761 10759 10757
10791 10796 10800 10805 10808 10809 10809 10814 10815 10813 10816 10815 10816 10817 10814 10814 10812 10811 10810 10810 10809 10808 10807 10805 10804 10801 10798 10797 10796 10794 10793 10791 10788 10785 10784 10783 10783 10780 10778 10776 10772 10769 10766 10764 10762 10759 10754 10752 10751
10782 10784 10791 10797 10801 10802 10804 10807 10810 10808 10808 10809 10811 10810 10810 10810 10808 10807 10807 10806 10805 10804 10803 10802 10800 10798 10796 10793 10790 10788 10787 10785 10784 10782 10779 10776 10774 10773 10770 10769 10767 10763 10760 10758 10756 10753 10749 10745 10742
10770 10778 10784 10788 10792 10796 10797 10800 10803 10803 10801 10801 10804 10805 10803 10805 10803 10802 10803 10804 10802 10801 10799 10797 10796 10793 10792 10790 10787 10783 10780 10778 10776 10773 10770 10768 10765 10764 10762 10760 10760 10756 10752 10749 10748 10745 10741 10738 10734
10766 10771 10773 10778 10783 10786 10791 10790 10796 10797 10793 10796 10796 10797 10798 10799 10798 10796 10796 10797 10798 10798 10796 10794 10792 10789 10785 10784 10781 10779 10777 10773 10770 10767 10765 10761 10758 10756 10753 10750 10750 10749 10745 10741 10737 10735 10733 10728 10724
10755 10758 10762 10767 10773 10779 10782 10781 10786 10789 10787 10787 10789 10792 10791 10791 10794 10789 10789 10789 10789 10790 10792 10790 10789 10787 10783 10779 10776 10772 10770 10769 10766 10762 10759 10757 10754 10751 10748 10744 10742 10742 10738 10734 10730 10726 10723 10719 10714
10743 10747 10751 10759 10764 10768 10773 10771 10773 10777 10778 10778 10779 10785 10785 10784 10784 10784 10781 10780 10780 10780 10780 10779 10779 10780 10778 10775 10772 10767 10762 10759 10758 10755 10752 10749 10747 10745 10742 10738 10734 10734 10731 10727 10723 10719 10714 10711 10704
10729 10734 10739 10749 10756 10761 10762 10765 10761 10764 10765 10765 10770 10773 10775 10774 10775 10776 10775 10773 10771 10770 10769 10766 10765 10765 10766 10766 10764 10761 10757 10752 10750 10747 10745 10741 10738 10735 10732 10729 10726 10722 10721 10718 10713 10710 10705 10701 10695
10715 10721 10730 10738 10744 10749 10752 10757 10746 10752 10751 10754 10758 10759 10760 10765 10766 10765 10765 10764 10762 10761 10760 10759 10756 10754 10752 10752 10751 10750 10746 10742 10737 10735 10733 10731 10730 10727 10724 10721 10716 10712 10709 10707 10702 10697 10693 10689 10687
10704 10710 10718 10723 10730 10740 10739 10746 10744 10734 10738 10743 10743 10745 10748 10752 10754 10755 10754 10753 10751 10750 10749 10749 10748 10746 10743 10741 10739 10736 10733 10730 10726 10723 10722 10718 10716 10716 10714 10711 10707 10704 10700 10696 10690 10684 10679 10674 10670
10691 10694 10699 10705 10715 10731 10728 10731 10741 10725 10723 10724 10729 10734 10737 10739 10741 10741 10741 10740 10738 10737 10738 10738 10738 10737 10735 10732 10728 10725 10721 10718 10714 10711 10708 10703 10701 10699 10698 10697 10693 10689 10686 10682 10677 10671 10663 10656 10654
10668 10674 10685 10694 10703 10713 10717 10720 10722 10723 10713 10707 10713 10720 10724 10724 10725 10726 10726 10726 10724 10723 10724 10724 10724 10723 10720 10718 10716 10713 10710 10706 10701 10696 10692 10686 10683 10681 10680 10678 10676 10673 10670 10665 10662 10657 10649 10642 10634
10658 10664 10666 10675 10686 10695 10704 10708 10704 10702 10711 10703 10702 10701 10702 10706 10709 10710 10709 10710 10710 10711 10711 10709 10709 10708 10706 10702 10700 10698 10694 10691 10686 10681 10676 10672 10667 10665 10662 10660 10658 10654 10651 10647 10644 10641 10634 10626 10617
10642 10647 10651 10660 10669 10676 10686 10691 10689 10684 10689 10698 10696 10688 10685 10686 10687 10689 10692 10693 10694 10695 10694 10695 10695 10694 10691 10688 10684 10681 10678 10674 10669 10664 10660 10657 10653 10648 10644 10639 10636 10633 10628 10624 10622 10619 10616 10611 10600
10624 10631 10634 10638 10649 10658 10668 10671 10670 10670 10674 10677 10679 10679 10674 10670 10671 10672 10671 10670 10671 10674 10675 10675 10676 10675 10673 10671 10668 10664 10661 10657 10653 10649 10644 10639 10634 10627 10623 10618 10614 10609 10604 10600 10598 10594 10591 10588 10578
10608 10618 10620 10623 10636 10637 10645 10654 10656 10655 10654 10654 10655 10659 10665 10662 10659 10655 10653 10652 10653 10652 10652 10654 10653 10651 10652 10650 10648 10645 10641 10639 10634 10629 10624 10619 10613 10607 10603 10597 10592 10585 10579 10574 10569 10564 10561 10559 10555